User: anonymous   Login
Location: Ca�n Batista
(41.4099°N, 1.7752°E)
Time: 01:17:20
(UTC+00:00)
Language:

CZ-2C DEB - Orbit

View from above orbital plane
View from above orbital plane
View from above satellite
View from above satellite

Ground track
Ground track

The orbit data is extracted from the following two-line orbital elements,

1 37769U 11039E   21268.13910576  .00001157  00000-0  21889-3 0  9992
2 37769  98.4197 151.2985 0080459 277.7823 213.6130 14.64403197540795
Epoch (UTC): 25 September 2021 03:20:18
Eccentricity: 0.0080459
inclination: 98.4197°
perigee height: 622 km
apogee height: 736 km
right ascension of ascending node: 151.2985°
argument of perigee: 277.7823°
revolutions per day: 14.64403197
mean anomaly at epoch: 213.6130°
orbit number at epoch: 54079

The dashed part of the orbit path shows where the satellite is in the earth's shadow,  

DLR